This is the latest recevied weather packets stored in our database for station/object OK1ZXS-6. If no packets are shown the sender has not sent any weather packets the latest 1 day(s).
| Time | Temp. | Humidity | Pressure | Rain* | Wind** | Luminosity | Snow |
|---|---|---|---|---|---|---|---|
| 1836274466 | 14.44° C | 84% | - | - | 0.89 m/s, 67° | - | - |
| 1836274315 | 14.44° C | 84% | - | - | 1.34 m/s, 67° | - | - |
| 1778024341 | 13.33° C | 78% | - | - | 1.79 m/s, 270° | - | - |
| 1778023446 | 13.33° C | 79% | - | - | 2.24 m/s, 0° | - | - |
| 1778022541 | 13.89° C | 77% | - | - | 2.24 m/s, 0° | - | - |
| 1778021643 | 14.44° C | 74% | - | - | 2.24 m/s, 315° | - | - |
| 1778020742 | 15° C | 72% | - | - | 2.24 m/s, 0° | - | - |
| 1778019842 | 15° C | 71% | - | - | 2.24 m/s, 337° | - | - |
| 1778018942 | 15° C | 69% | - | - | 2.68 m/s, 292° | - | - |
| 1778018043 | 15° C | 69% | - | - | 2.24 m/s, 270° | - | - |
| 1778017142 | 15° C | 69% | - | - | 2.24 m/s, 270° | - | - |
| 1778016242 | 15.56° C | 65% | - | - | 2.24 m/s, 247° | - | - |
| 1778015342 | 15.56° C | 62% | - | - | 1.34 m/s, 225° | - | - |
| 1778014442 | 16.11° C | 61% | - | - | 1.34 m/s, 225° | - | - |
| 1778013542 | 16.11° C | 59% | - | - | 1.34 m/s, 225° | - | - |
| 1778012642 | 15.56° C | 59% | - | - | 0.89 m/s, 225° | - | - |
| 1778011742 | 16.11° C | 57% | - | - | 0.45 m/s, 45° | - | - |
| 1778010843 | 16.67° C | 56% | - | - | 0.89 m/s, 22° | - | - |
| 1778009942 | 17.22° C | 54% | - | - | 1.34 m/s, 90° | - | - |
| 1778009042 | 17.22° C | 54% | - | - | 0.89 m/s, 22° | - | - |
| 1778008142 | 17.22° C | 53% | - | - | 0.89 m/s, 45° | - | - |
| 1778007241 | 17.22° C | 54% | - | - | 1.79 m/s, 90° | - | - |
| 1778006343 | 16.67° C | 54% | - | - | 1.34 m/s, 90° | - | - |
| 1778005442 | 16.67° C | 55% | - | - | 0.89 m/s, 90° | - | - |
| 1778004542 | 17.22° C | 56% | - | - | 0 m/s | - | - |
* Rain since midnight (hover to see other rain measurements)
** Current wind speed in m/s (hover to see current wind gust speed)